{"data":{"norad_id":65857,"epoch":"2026-05-25T03:36:01.500768Z","epoch_age_seconds":61982,"freshness":"FRESH","line1":"1 65857U 25223D   26145.15001737  .00035383  00000+0  10529-2 0  9997","line2":"2 65857  53.1603 298.9150 0000749  66.7622 293.3460 15.34416261 35912","mean_motion":15.34416261,"eccentricity":7.49e-5,"inclination_deg":53.1603,"raan_deg":298.915,"arg_perigee_deg":66.7622,"mean_anomaly_deg":293.346,"bstar":0.0010529,"rev_number":3591,"period_min":93.846763528271,"perigee_km":462.14253420106,"apogee_km":463.1672848291,"semimajor_km":6840.7919095151,"source":"CELESTRAK","updated_at":"2026-05-25T13:38:20.948981Z"}}